Terminal Aerodrome Forecast
Issued by NWS

Home | Current Version | Previous Version | Graphics & Text | Print | Product List | Glossary On
Versions: 1 2 3 4 5 6 7 8 9 10 11 12 13 14 15 16 17 18 19
000
FTUS43 KUNR 210333 AAB
TAFGCC
TAF AMD
KGCC 210333Z 2104/2124 22022G32KT P6SM BKN120
     FM211400 24032G48KT P6SM BKN100=

USA.gov is the U.S. government's official web portal to all federal, state and local government web resources and services.